[[{"header":{"parameterUnit":"m.s-1","parameterCategory":1,"la1":30.2991,"la2":30.254,"lo1":-89.0895,"lo2":-89.0444,"dy":0.0017,"dx":0.0017,"nx":28,"ny":28,"refTime":"2024-06-16T09:00:00:Z","depth":0,"parameterNumber":2,"parameterNumberName":"U-component_of_WINDS"},"data":[0,0,0,0,0,0,0,0,0,0,0,0,0,0,0,0,0,0,0,0,0,0,0,0,0,0,0,0,0,0,0,0,0,0,0,0,0,0,0,0,0,0,0,0,0,0,0,0,0,0,0,0,0,0,0,0,0,0,-5.4005,-5.4006,0,-5.4032,-5.4032,-5.4032,-5.3903,-5.3899,-5.3896,-5.3892,-5.3917,-5.3921,-5.3925,0,0,0,0,0,0,0,0,0,0,0,0,0,-5.384,-5.3843,-5.4005,-5.4006,-5.4006,-5.4032,-5.4032,-5.4033,-5.3904,-5.3899,-5.3895,-5.389,-5.3915,-5.392,-5.3925,0,0,0,0,0,0,0,0,0,0,0,0,0,-5.3893,-5.3845,-5.4005,-5.3945,-5.394,-5.4032,-5.4032,-5.4033,-5.3905,-5.3899,-5.3893,-5.3888,-5.3914,-5.392,-5.3926,-5.4076,0,0,-5.3945,-5.3948,0,0,0,0,0,0,0,0,-5.3891,-5.39,-5.3954,-5.3949,-5.3944,-5.3958,-5.3983,-5.4047,-5.3906,-5.3918,-5.3892,-5.3886,-5.3935,-5.3939,-5.3956,-5.4077,-5.4078,-5.3945,-5.3949,-5.3952,-5.3954,0,0,0,0,0,0,0,-5.3887,-5.3898,-5.4016,-5.3954,-5.3949,-5.3915,-5.3917,-5.3994,-5.3957,-5.3917,-5.3907,-5.3912,-5.3931,-5.3951,-5.3956,-5.4079,-5.3945,-5.3951,-5.3955,-5.3957,-5.4322,-5.4327,0,0,0,0,0,0,-5.3892,-5.3896,-5.4015,-5.4016,-5.3903,-5.3923,-5.3924,-5.3959,-5.3956,-5.3951,-5.3917,-5.3906,-5.3943,-5.3949,-5.3956,-5.4129,-5.3952,-5.3958,-5.3961,-5.4316,-5.4323,-5.433,0,0,0,0,0,0,-5.3889,-5.3904,-5.4014,-5.3954,-5.3965,-5.3932,-5.3972,-5.3963,-5.3982,-5.3957,-5.3949,-5.3944,-5.3939,-5.3947,-5.4047,-5.4129,-5.396,-5.3966,-5.4309,-5.4318,-5.4326,-5.4479,0,0,0,0,0,0,-5.3885,-5.3903,-5.3961,-5.3956,-5.3969,-5.4106,-5.3977,-5.3967,-5.3993,-5.3979,-5.398,-5.3974,-5.3935,-5.4038,-5.4053,-5.4134,-5.3971,-5.4301,-5.4313,-5.4323,-5.4467,-5.4492,-5.4514,0,0,0,0,0,-5.3879,-5.4003,-5.3965,-5.398,-5.404,-5.4111,-5.4118,-5.407,-5.4001,-5.4057,-5.4041,-5.3974,-5.4118,-5.405,-5.4065,-5.4149,-5.4296,-5.431,-5.4323,-5.4456,-5.4487,-5.4514,0,0,0,0,0,0,-5.4018,-5.4001,-5.3958,-5.4085,-5.41,-5.4089,-5.4159,-5.4105,-5.414,-5.4125,-5.4064,-5.4066,-5.4175,-5.4172,-5.4096,-5.4293,-5.4195,-5.4212,-5.4291,-5.432,-5.4344,-5.434,-5.3976,0,0,0,0,0,-5.4064,-5.4123,-5.4105,-5.4218,-5.4228,-5.4193,-5.4221,-5.4184,-5.4197,-5.4202,-5.4193,-5.4207,-5.4255,-5.4288,-5.4331,-5.4467,-5.4463,-5.4532,-5.4556,-5.4575,-5.459,-5.4659,-5.4688,-5.4374,-5.4373,-5.4373,0,0,-5.4158,-5.4156,-5.4197,-5.4246,-5.4253,-5.4314,-5.4199,-5.4269,-5.4313,-5.4212,-5.4305,-5.4299,-5.4311,-5.4429,-5.448,-5.443,-5.4677,-5.4593,-5.4609,-5.4612,-5.4676,-5.4706,-5.4732,-5.4383,-5.4381,-5.438,0,0,-5.436,-5.4366,-5.4459,-5.4469,-5.4482,-5.4458,-5.4481,-5.4477,-5.4469,-5.4562,-5.4487,-5.4538,-5.4623,-5.4634,-5.465,-5.4857,-5.4796,-5.4873,-5.4996,-5.5063,-5.5088,-5.511,-5.518,-5.5207,-5.4888,-5.4888,-5.4889,0,-5.4475,-5.4565,-5.4514,-5.4589,-5.4611,-5.4524,-5.4617,-5.4629,-5.4655,-5.4672,-5.4616,-5.4719,-5.4722,-5.4839,-5.4889,-5.4907,-5.4929,-5.4871,-5.5089,-5.511,-5.5129,-5.5196,-5.5223,-5.4897,-5.4896,-5.4895,-5.4894,0,-5.4704,-5.4768,-5.4842,-5.4869,-5.4901,-5.4985,-5.4945,-5.4982,-5.4942,-5.4923,-5.5017,-5.5017,-5.5057,-5.5083,-5.5045,-5.5195,-5.5163,-5.51,-5.4998,-5.5169,-5.5231,-5.5256,-5.491,-5.4907,-5.4904,-5.4902,0,0,-5.4993,-5.4991,-5.5019,-5.5029,-5.5037,-5.5085,-5.5164,-5.5204,-5.5236,-5.5258,-5.5321,-5.5394,-5.5335,-5.5354,-5.5316,-5.5376,-5.5536,-5.5304,-5.5304,-5.5345,-5.5698,-5.5744,-5.5774,-5.5497,-5.5502,-5.5506,-5.5696,0,-5.5188,-5.5324,-5.528,-5.5416,-5.5473,-5.5391,-5.546,-5.5471,-5.5456,-5.5501,-5.5484,-5.5536,-5.5455,-5.5466,-5.5522,-5.5505,-5.5606,-5.5491,-5.5553,-5.5556,-5.5549,-5.5807,-5.5856,-5.6035,-5.572,-5.5724,-5.5727,0,-5.5434,-5.5465,-5.5607,-5.5604,-5.5626,-5.5688,-5.572,-5.5765,-5.5776,-5.576,-5.5782,-5.5731,-5.5807,-5.5709,-5.5811,-5.5734,-5.5757,-5.5753,-5.5758,-5.5759,-5.565,-5.5812,-5.6092,-5.6118,-5.5765,-5.5762,-5.5759,0,-5.5626,-5.5704,-5.5798,-5.581,-5.5809,-5.5855,-5.5856,-5.5862,-5.5888,-5.5916,-5.5932,-5.5969,-5.5989,-5.6018,-5.5978,-5.591,-5.6085,-5.5984,-5.6072,-5.6073,-5.611,-5.6108,-5.6394,-5.6131,-5.6131,-5.613,-5.613,0,-5.5847,-5.5937,-5.5884,-5.5942,-5.6039,-5.5988,-5.6085,-5.6077,-5.6083,-5.6136,-5.6069,-5.6121,-5.6066,-5.6112,-5.6082,-5.6169,-5.618,-5.6168,-5.6158,-5.6172,-5.6173,-5.6184,-5.6169,-5.6137,-5.6136,-5.6134,-5.6133,0,-5.6077,-5.6046,-5.6143,-5.6134,-5.6134,-5.6206,-5.6197,-5.625,-5.623,-5.6299,-5.6312,-5.6281,-5.6331,-5.6295,-5.6346,-5.6325,-5.644,-5.6414,-5.6436,-5.6428,-5.6517,-5.6508,-5.6818,-5.6855,-5.6571,-5.6574,-5.6576,0,-5.6218,-5.6285,-5.6284,-5.6315,-5.6321,-5.6373,-5.6399,-5.6351,-5.6381,-5.6398,-5.6448,-5.6493,-5.6526,-5.6611,-5.6592,-5.663,-5.6603,-5.6709,-5.6608,-5.662,-5.6601,-5.6596,-5.6601,-5.6729,-5.6732,-5.6735,-5.6737,0,-5.6471,-5.6452,-5.6493,-5.6529,-5.6563,-5.6588,-5.6608,-5.6638,-5.6589,-5.6626,-5.6678,-5.6704,-5.6755,-5.68,-5.6831,-5.6831,-5.6776,-5.6769,-5.6791,-5.6804,-5.6813,-5.6806,-5.6488,-5.6762,-5.6759,-5.6757,-5.6756,-5.6755,-5.6659,-5.6713,-5.672,-5.6768,-5.6778,-5.6798,-5.6846,-5.6832,-5.6875,-5.6913,-5.6882,-5.6943,-5.6951,-5.6987,-5.6994,-5.704,-5.6996,-5.7029,-5.7036,-5.7044,-5.7055,-5.6809,-5.7046,-5.7045,-5.7044,-5.7044,-5.7043,0,-5.6905,-5.6906,-5.695,-5.698,-5.7017,-5.6963,-5.6982,-5.7016,-5.7071,-5.7083,-5.7117,-5.7175,-5.7219,-5.7204,-5.7242,-5.7281,-5.7256,-5.7292,-5.7287,-5.7287,-5.7094,-5.7069,-5.7311,-5.7311,-5.7311,-5.7311,-5.7311,-5.7311,-5.7037,-5.7126,-5.7108,-5.72,-5.72,-5.7259,-5.7274,-5.7292,-5.7301,-5.7369,-5.7404,-5.7395,-5.7396,-5.7433,-5.747,-5.7464,-5.748,-5.7525,-5.751,-5.7328,-5.7301,-5.7276,-5.7253,-5.7529,-5.753,-5.7699,-5.77,-5.7701]},{"header":{"parameterUnit":"m.s-1","parameterCategory":1,"la1":30.2991,"la2":30.254,"lo1":-89.0895,"lo2":-89.0444,"dy":0.0017,"dx":0.0017,"nx":28,"ny":28,"refTime":"2024-06-16T09:00:00:Z","depth":0,"parameterNumber":3,"parameterNumberName":"V-component_of_WINDS"},"data":[0,0,0,0,0,0,0,0,0,0,0,0,0,0,0,0,0,0,0,0,0,0,0,0,0,0,0,0,0,0,0,0,0,0,0,0,0,0,0,0,0,0,0,0,0,0,0,0,0,0,0,0,0,0,0,0,0,0,1.6788,1.6787,0,1.6712,1.6711,1.671,1.6586,1.6584,1.6581,1.6579,1.6501,1.6501,1.6502,0,0,0,0,0,0,0,0,0,0,0,0,0,1.6826,1.6826,1.6788,1.6787,1.6786,1.6712,1.6711,1.671,1.6586,1.6584,1.6581,1.6578,1.6501,1.6501,1.6502,0,0,0,0,0,0,0,0,0,0,0,0,0,1.6786,1.6826,1.6788,1.6715,1.6708,1.6713,1.6711,1.671,1.6587,1.6584,1.658,1.6577,1.6501,1.6501,1.6502,1.6571,0,0,1.6502,1.6502,0,0,0,0,0,0,0,0,1.6789,1.6785,1.6727,1.672,1.6712,1.6655,1.6696,1.6663,1.6588,1.6633,1.6579,1.6575,1.6555,1.6551,1.6544,1.6567,1.6564,1.6502,1.6502,1.6502,1.6502,0,0,0,0,0,0,0,1.6791,1.6787,1.6758,1.6726,1.6717,1.6687,1.6677,1.6689,1.6614,1.6629,1.662,1.6612,1.6551,1.6544,1.6541,1.6563,1.6502,1.6502,1.6502,1.6502,1.6641,1.6644,0,0,0,0,0,0,1.6805,1.6791,1.676,1.6756,1.6743,1.6689,1.6678,1.6677,1.6614,1.6601,1.6615,1.6607,1.6546,1.6541,1.6538,1.6616,1.6502,1.6502,1.6502,1.6637,1.6641,1.6645,0,0,0,0,0,0,1.6806,1.6803,1.6763,1.6771,1.6763,1.6692,1.6691,1.6677,1.6671,1.6604,1.659,1.6623,1.6543,1.6538,1.6564,1.6611,1.6502,1.6502,1.6633,1.6638,1.6643,1.6772,0,0,0,0,0,0,1.6808,1.6805,1.683,1.6772,1.6763,1.6791,1.6694,1.6678,1.6671,1.6659,1.6607,1.6595,1.654,1.6565,1.6564,1.6609,1.6502,1.6628,1.6635,1.6642,1.6763,1.6781,1.6796,0,0,0,0,0,1.681,1.6868,1.6832,1.6829,1.6793,1.6793,1.6788,1.6724,1.6675,1.67,1.6658,1.6596,1.6607,1.6568,1.6567,1.6613,1.6625,1.6633,1.6641,1.6755,1.6777,1.6796,0,0,0,0,0,0,1.6933,1.6859,1.6818,1.686,1.6834,1.6772,1.6802,1.6749,1.6736,1.6726,1.6646,1.6636,1.6672,1.6645,1.6604,1.6677,1.6606,1.6615,1.6694,1.6714,1.673,1.6736,1.6502,0,0,0,0,0,1.6965,1.6971,1.6907,1.695,1.6939,1.6874,1.6871,1.6824,1.6794,1.6782,1.6741,1.6715,1.6712,1.6711,1.6705,1.6759,1.6746,1.679,1.6807,1.6821,1.6829,1.6856,1.6875,1.6672,1.6672,1.6672,0,0,1.7031,1.6992,1.7001,1.6974,1.6948,1.6957,1.6865,1.6877,1.6883,1.6784,1.6806,1.6776,1.6741,1.6782,1.6797,1.676,1.6882,1.6831,1.6843,1.6843,1.6867,1.6886,1.6903,1.6678,1.6677,1.6676,0,0,1.7157,1.7127,1.716,1.7137,1.71,1.7056,1.7065,1.7012,1.6988,1.7009,1.6935,1.6941,1.6938,1.6916,1.6905,1.7025,1.6969,1.7026,1.7112,1.714,1.7156,1.717,1.7214,1.723,1.7034,1.7034,1.7034,0,1.7243,1.7253,1.7184,1.7202,1.7193,1.7105,1.7138,1.7119,1.7082,1.7078,1.7037,1.7032,1.7002,1.7037,1.7067,1.7061,1.7068,1.703,1.716,1.7173,1.7185,1.7225,1.7242,1.7041,1.704,1.704,1.7039,0,1.7362,1.7371,1.7402,1.7369,1.7364,1.7389,1.7325,1.7328,1.7283,1.7244,1.7267,1.7229,1.7214,1.7219,1.7174,1.7248,1.7226,1.7174,1.71,1.7212,1.7249,1.7264,1.7051,1.7049,1.7047,1.7045,0,0,1.7561,1.7491,1.7504,1.7489,1.7442,1.7447,1.747,1.7456,1.746,1.7439,1.7456,1.7456,1.7408,1.7395,1.7348,1.7372,1.7471,1.7316,1.7314,1.7347,1.7552,1.7592,1.7611,1.7434,1.7437,1.7439,1.7555,0,1.7676,1.771,1.765,1.7699,1.7706,1.7624,1.7643,1.7618,1.7583,1.7584,1.7545,1.7547,1.7482,1.7475,1.7496,1.7455,1.7511,1.7446,1.745,1.7451,1.7461,1.763,1.7671,1.7783,1.7569,1.7571,1.7573,0,1.7815,1.7801,1.785,1.7803,1.7803,1.7822,1.7805,1.7808,1.7778,1.775,1.7738,1.7682,1.7702,1.7632,1.7659,1.7616,1.7614,1.7595,1.7598,1.7595,1.7518,1.7632,1.7817,1.7834,1.7595,1.7593,1.7592,0,1.7955,1.7949,1.7978,1.7967,1.7912,1.7928,1.7905,1.7872,1.7868,1.7854,1.785,1.7839,1.7832,1.7825,1.7768,1.7722,1.7802,1.7727,1.778,1.7782,1.78,1.7799,1.7987,1.78,1.78,1.7799,1.7799,0,1.809,1.8124,1.804,1.8058,1.8094,1.8025,1.8063,1.8032,1.8004,1.8015,1.7943,1.7955,1.7879,1.7884,1.784,1.7869,1.7867,1.7845,1.7833,1.7852,1.7855,1.7849,1.784,1.7804,1.7803,1.7802,1.7801,0,1.8252,1.8198,1.8224,1.8171,1.8158,1.8187,1.8141,1.8156,1.8117,1.8132,1.8132,1.8071,1.8073,1.8016,1.8005,1.7976,1.8025,1.7998,1.8035,1.8026,1.8083,1.8079,1.8273,1.8296,1.8095,1.8097,1.8099,0,1.8341,1.8365,1.8315,1.8318,1.8299,1.8304,1.83,1.8234,1.8233,1.8202,1.8221,1.8217,1.821,1.8217,1.8172,1.8164,1.8137,1.8206,1.8135,1.8154,1.8138,1.8138,1.814,1.8221,1.8223,1.8225,1.8227,0,1.8506,1.8478,1.8475,1.8463,1.8461,1.8448,1.8431,1.8438,1.8366,1.8368,1.8369,1.8364,1.8355,1.8352,1.8337,1.8314,1.826,1.825,1.8262,1.8281,1.8301,1.8291,1.8075,1.8245,1.8244,1.8242,1.8241,1.824,1.8634,1.8652,1.862,1.862,1.86,1.8586,1.8598,1.8562,1.8561,1.8548,1.851,1.8518,1.8489,1.8463,1.8446,1.8451,1.8417,1.8434,1.8439,1.8444,1.8455,1.8301,1.8448,1.8448,1.8447,1.8447,1.8446,0,1.8795,1.8771,1.8771,1.875,1.875,1.8699,1.8678,1.8682,1.869,1.8668,1.8663,1.8665,1.8663,1.8619,1.8611,1.8625,1.86,1.8625,1.8623,1.8619,1.8485,1.8476,1.8646,1.8646,1.8646,1.8646,1.8646,1.8645,1.8879,1.8907,1.8876,1.8895,1.887,1.8878,1.887,1.8858,1.884,1.8846,1.8843,1.8815,1.8785,1.8775,1.8771,1.8758,1.8759,1.8793,1.8772,1.8648,1.8628,1.861,1.8601,1.8794,1.8794,1.8905,1.8906,1.8907]}]]